MSR727 HECA-LTBJ

Flight info

Callsign MSR727
Flight time 1h 30m
Altitude 34000
Route MENKU L617 NOZ L551 ANTAR DCT BANRO UG80 OKESA
Aircraft A320/M-SDE3FGHIRWY/LB1

Departure

Time 2026-05-06 18:31
Airport Cairo International Airport (HECA)

Arrival

Time 2026-05-06 20:01
Airport Adnan Menderes International Airport (LTBJ)
Time Latitude Longitude Altitude Speed Heading
2026-05-06 18:15 30.10808 31.39680 374 ft 0 kts 255°
2026-05-06 18:24 30.10811 31.39691 374 ft 4 kts 255°
2026-05-06 18:24 30.10817 31.39720 374 ft 4 kts 256°
2026-05-06 18:25 30.10825 31.39749 374 ft 4 kts 241°
2026-05-06 18:25 30.10838 31.39766 374 ft 3 kts 173°
2026-05-06 18:25 30.10841 31.39766 374 ft 0 kts 165°
2026-05-06 18:27 30.10837 31.39767 374 ft 2 kts 164°
2026-05-06 18:27 30.10810 31.39776 374 ft 5 kts 163°
2026-05-06 18:28 30.10773 31.39788 374 ft 6 kts 165°
2026-05-06 18:28 30.10725 31.39802 374 ft 9 kts 166°
2026-05-06 18:28 30.10652 31.39824 374 ft 12 kts 165°
2026-05-06 18:28 30.10566 31.39850 374 ft 14 kts 165°
2026-05-06 18:29 30.10465 31.39878 374 ft 16 kts 171°
2026-05-06 18:29 30.10373 31.39812 374 ft 17 kts 228°
2026-05-06 18:29 30.10287 31.39700 374 ft 20 kts 229°
2026-05-06 18:29 30.10188 31.39578 374 ft 21 kts 212°
2026-05-06 18:30 30.10073 31.39649 374 ft 20 kts 139°
2026-05-06 18:30 30.10007 31.39739 374 ft 13 kts 111°
2026-05-06 18:30 30.10016 31.39865 372 ft 19 kts 72°
2026-05-06 18:30 30.10099 31.39997 371 ft 22 kts 50°
2026-05-06 18:31 30.10296 31.40261 374 ft 76 kts 49°
2026-05-06 18:31 30.10771 31.40891 371 ft 130 kts 49°
2026-05-06 18:31 30.11465 31.41806 432 ft 167 kts 47°
2026-05-06 18:31 30.12203 31.42786 1105 ft 160 kts 47°
2026-05-06 18:32 30.13056 31.43537 1625 ft 157 kts 12°
2026-05-06 18:32 30.14180 31.43330 1833 ft 179 kts 327°
2026-05-06 18:32 30.15119 31.42255 2124 ft 204 kts 315°
2026-05-06 18:32 30.16274 31.41123 2379 ft 232 kts 323°
2026-05-06 18:33 30.17638 31.39952 2792 ft 256 kts 324°
2026-05-06 18:33 30.19098 31.38712 3522 ft 262 kts 325°
2026-05-06 18:33 30.20578 31.37465 4487 ft 264 kts 324°
2026-05-06 18:33 30.22072 31.36221 5347 ft 267 kts 325°
2026-05-06 18:34 30.23602 31.34960 6207 ft 272 kts 324°
2026-05-06 18:34 30.25161 31.33690 7053 ft 276 kts 325°
2026-05-06 18:34 30.26746 31.32406 7882 ft 280 kts 325°
2026-05-06 18:34 30.28356 31.31106 8689 ft 284 kts 325°
2026-05-06 18:35 30.29991 31.29789 9476 ft 288 kts 325°
2026-05-06 18:35 30.31649 31.28459 10224 ft 293 kts 325°
2026-05-06 18:35 30.33375 31.27083 10470 ft 316 kts 325°
2026-05-06 18:35 30.35257 31.25586 10639 ft 339 kts 325°
2026-05-06 18:36 30.37248 31.24003 11042 ft 353 kts 324°
2026-05-06 18:36 30.39117 31.22150 11665 ft 357 kts 311°
2026-05-06 18:36 30.40782 31.20004 12338 ft 360 kts 311°
2026-05-06 18:36 30.42459 31.17830 13004 ft 363 kts 311°
2026-05-06 18:37 30.44145 31.15638 13661 ft 366 kts 311°
2026-05-06 18:37 30.45270 31.14175 14089 ft 368 kts 311°
2026-05-06 18:37 30.46981 31.11952 14739 ft 371 kts 311°
2026-05-06 18:37 30.48701 31.09713 15352 ft 373 kts 311°
2026-05-06 18:38 30.50432 31.07457 15952 ft 376 kts 311°
2026-05-06 18:38 30.52180 31.05178 16544 ft 379 kts 310°
2026-05-06 18:38 30.53942 31.02879 17147 ft 382 kts 310°
2026-05-06 18:38 30.55716 31.00564 17739 ft 385 kts 310°
2026-05-06 18:39 30.57501 30.98235 18323 ft 388 kts 310°
2026-05-06 18:39 30.59299 30.95890 18904 ft 391 kts 310°
2026-05-06 18:39 30.61113 30.93523 19486 ft 394 kts 310°
2026-05-06 18:40 30.64786 30.88727 20617 ft 401 kts 310°
2026-05-06 18:40 30.66640 30.86296 21137 ft 404 kts 310°
2026-05-06 18:40 30.68484 30.83873 21646 ft 406 kts 310°
2026-05-06 18:40 30.70363 30.81406 22121 ft 409 kts 310°
2026-05-06 18:41 30.72255 30.78921 22580 ft 412 kts 310°
2026-05-06 18:41 30.74164 30.76414 23041 ft 415 kts 310°
2026-05-06 18:41 30.76084 30.73894 23493 ft 418 kts 310°
2026-05-06 18:41 30.78014 30.71362 23907 ft 419 kts 310°
2026-05-06 18:42 30.79957 30.68813 24289 ft 422 kts 310°
2026-05-06 18:42 30.81908 30.66252 24686 ft 424 kts 310°
2026-05-06 18:42 30.83873 30.63671 25073 ft 426 kts 310°
2026-05-06 18:42 30.85842 30.61084 25442 ft 428 kts 310°
2026-05-06 18:43 30.87821 30.58478 25803 ft 430 kts 310°
2026-05-06 18:43 30.89805 30.55856 26183 ft 432 kts 310°
2026-05-06 18:43 30.91793 30.53226 26525 ft 434 kts 310°
2026-05-06 18:43 30.93793 30.50580 26888 ft 436 kts 310°
2026-05-06 18:44 30.95806 30.47922 27234 ft 438 kts 310°
2026-05-06 18:44 30.97824 30.45251 27586 ft 440 kts 310°
2026-05-06 18:44 30.99848 30.42572 27920 ft 441 kts 310°
2026-05-06 18:44 31.01878 30.39874 28247 ft 443 kts 310°
2026-05-06 18:45 31.03917 30.37164 28574 ft 444 kts 310°
2026-05-06 18:45 31.05950 30.34472 29014 ft 442 kts 310°
2026-05-06 18:45 31.07885 30.31698 29430 ft 440 kts 303°
2026-05-06 18:45 31.09427 30.28627 29827 ft 438 kts 294°
2026-05-06 18:46 31.10524 30.25329 30270 ft 435 kts 287°
2026-05-06 18:46 31.11427 30.21962 30683 ft 435 kts 287°
2026-05-06 18:46 31.12333 30.18635 31086 ft 434 kts 287°
2026-05-06 18:46 31.13249 30.15289 31493 ft 433 kts 287°
2026-05-06 18:47 31.14166 30.11946 31893 ft 432 kts 287°
2026-05-06 18:47 31.15079 30.08613 32279 ft 431 kts 287°
2026-05-06 18:47 31.15989 30.05285 32671 ft 431 kts 287°
2026-05-06 18:47 31.16905 30.01953 33071 ft 430 kts 289°
2026-05-06 18:48 31.18135 29.98783 33444 ft 430 kts 299°
2026-05-06 18:48 31.19847 29.95921 33791 ft 430 kts 310°
2026-05-06 18:48 31.21984 29.93465 34054 ft 433 kts 320°
2026-05-06 18:49 31.27192 29.89795 34110 ft 442 kts 330°
2026-05-06 18:49 31.32645 29.86412 34109 ft 444 kts 330°
2026-05-06 18:50 31.38092 29.83013 34110 ft 444 kts 330°
2026-05-06 18:50 31.43542 29.79595 34111 ft 444 kts 330°
2026-05-06 18:51 31.48977 29.76180 34111 ft 443 kts 330°
2026-05-06 18:51 31.54422 29.72748 34109 ft 444 kts 330°
2026-05-06 18:52 31.59833 29.69340 34118 ft 444 kts 330°
2026-05-06 18:52 31.65281 29.65914 34122 ft 444 kts 330°
2026-05-06 18:53 31.70722 29.62488 34123 ft 444 kts 330°
2026-05-06 18:53 31.76158 29.59050 34123 ft 444 kts 330°
2026-05-06 18:54 31.81600 29.55614 34124 ft 444 kts 330°
2026-05-06 18:54 31.87043 29.52157 34126 ft 444 kts 330°
2026-05-06 18:55 31.92483 29.48697 34129 ft 444 kts 330°
2026-05-06 18:55 31.97919 29.45245 34131 ft 444 kts 330°
2026-05-06 18:56 32.03356 29.41796 34133 ft 443 kts 330°
2026-05-06 18:56 32.08786 29.38337 34134 ft 443 kts 330°
2026-05-06 18:57 32.14169 29.34904 34136 ft 442 kts 330°
2026-05-06 18:57 32.19579 29.31450 34136 ft 442 kts 330°
2026-05-06 18:58 32.24999 29.27990 34137 ft 443 kts 330°
2026-05-06 18:58 32.30412 29.24519 34137 ft 442 kts 330°
2026-05-06 18:59 32.35808 29.21053 34139 ft 441 kts 330°
2026-05-06 18:59 32.41211 29.17579 34138 ft 442 kts 330°
2026-05-06 19:00 32.46609 29.14111 34136 ft 441 kts 330°
2026-05-06 19:00 32.51994 29.10629 34137 ft 441 kts 330°
2026-05-06 19:01 32.57343 29.07167 34134 ft 440 kts 330°
2026-05-06 19:01 32.62758 29.03680 34133 ft 439 kts 330°
2026-05-06 19:02 32.68089 29.00238 34124 ft 439 kts 330°
2026-05-06 19:02 32.73454 28.96749 34124 ft 440 kts 329°
2026-05-06 19:03 32.78819 28.93266 34125 ft 440 kts 329°
2026-05-06 19:03 32.84186 28.89777 34126 ft 439 kts 329°
2026-05-06 19:04 32.89545 28.86288 34122 ft 439 kts 329°
2026-05-06 19:04 32.94899 28.82790 34123 ft 438 kts 329°
2026-05-06 19:05 33.00253 28.79289 34122 ft 439 kts 329°
2026-05-06 19:05 33.05616 28.75793 34123 ft 439 kts 329°
2026-05-06 19:06 33.10973 28.72293 34124 ft 438 kts 329°
2026-05-06 19:06 33.16294 28.68813 34124 ft 439 kts 329°
2026-05-06 19:07 33.21647 28.65306 34125 ft 438 kts 329°
2026-05-06 19:07 33.26980 28.61802 34123 ft 438 kts 329°
2026-05-06 19:08 33.32323 28.58282 34122 ft 438 kts 329°
2026-05-06 19:08 33.37661 28.54761 34124 ft 438 kts 329°
2026-05-06 19:09 33.43006 28.51231 34125 ft 439 kts 329°
2026-05-06 19:09 33.48344 28.47698 34129 ft 438 kts 329°
2026-05-06 19:10 33.53684 28.44165 34130 ft 439 kts 329°
2026-05-06 19:10 33.58989 28.40646 34130 ft 439 kts 329°
2026-05-06 19:11 33.64337 28.37092 34133 ft 439 kts 329°
2026-05-06 19:11 33.69684 28.33544 34134 ft 439 kts 329°
2026-05-06 19:12 33.75035 28.29990 34135 ft 439 kts 329°
2026-05-06 19:12 33.80608 28.27001 34132 ft 441 kts 343°
2026-05-06 19:13 33.86704 28.26003 34132 ft 444 kts 353°
2026-05-06 19:13 33.92871 28.25411 34130 ft 444 kts 353°
2026-05-06 19:14 33.99031 28.24808 34131 ft 444 kts 353°
2026-05-06 19:14 34.05194 28.24211 34135 ft 444 kts 353°
2026-05-06 19:15 34.11315 28.23617 34132 ft 444 kts 353°
2026-05-06 19:15 34.17466 28.23006 34132 ft 444 kts 353°
2026-05-06 19:16 34.23618 28.22395 34130 ft 444 kts 353°
2026-05-06 19:16 34.29763 28.21787 34126 ft 443 kts 353°
2026-05-06 19:17 34.35906 28.21176 34125 ft 443 kts 353°
2026-05-06 19:17 34.42053 28.20568 34127 ft 443 kts 353°
2026-05-06 19:18 34.48194 28.19959 34128 ft 443 kts 353°
2026-05-06 19:18 34.54335 28.19356 34131 ft 443 kts 353°
2026-05-06 19:19 34.60471 28.18759 34131 ft 442 kts 353°
2026-05-06 19:19 34.66618 28.18141 34131 ft 443 kts 353°
2026-05-06 19:20 34.72765 28.17525 34134 ft 443 kts 353°
2026-05-06 19:20 34.78910 28.16918 34134 ft 442 kts 353°
2026-05-06 19:21 34.85018 28.16309 34138 ft 444 kts 353°
2026-05-06 19:21 34.91155 28.15699 34140 ft 442 kts 353°
2026-05-06 19:22 34.97287 28.15084 34135 ft 441 kts 353°
2026-05-06 19:22 35.03407 28.14468 34127 ft 441 kts 353°
2026-05-06 19:23 35.09524 28.13855 34131 ft 441 kts 353°
2026-05-06 19:23 35.15624 28.13240 34125 ft 439 kts 352°
2026-05-06 19:24 35.21711 28.12614 34121 ft 439 kts 353°
2026-05-06 19:24 35.27795 28.12004 34123 ft 438 kts 353°
2026-05-06 19:25 35.33867 28.11401 34121 ft 438 kts 352°
2026-05-06 19:25 35.39909 28.10785 34120 ft 438 kts 352°
2026-05-06 19:26 35.45982 28.10166 34119 ft 438 kts 352°
2026-05-06 19:26 35.52051 28.09545 34113 ft 438 kts 353°
2026-05-06 19:27 35.57100 28.09031 34115 ft 438 kts 352°
2026-05-06 19:27 35.63169 28.08419 34118 ft 438 kts 352°
2026-05-06 19:28 35.69233 28.07802 34116 ft 438 kts 352°
2026-05-06 19:28 35.75305 28.07183 34114 ft 437 kts 352°
2026-05-06 19:29 35.81320 28.06564 34116 ft 437 kts 352°
2026-05-06 19:29 35.87371 28.05946 34114 ft 436 kts 352°
2026-05-06 19:30 35.93433 28.05327 34108 ft 437 kts 352°
2026-05-06 19:30 35.99449 28.04707 34109 ft 437 kts 352°
2026-05-06 19:31 36.05502 28.04083 34106 ft 436 kts 352°
2026-05-06 19:31 36.14578 28.03145 34101 ft 436 kts 352°
2026-05-06 19:32 36.20625 28.02521 34098 ft 435 kts 352°
2026-05-06 19:32 36.26652 28.01901 34086 ft 435 kts 352°
2026-05-06 19:33 36.32677 28.01273 34090 ft 434 kts 352°
2026-05-06 19:33 36.38705 28.00648 34085 ft 435 kts 352°
2026-05-06 19:34 36.44745 28.00027 34085 ft 435 kts 352°
2026-05-06 19:34 36.50690 27.98805 34097 ft 432 kts 340°
2026-05-06 19:35 36.56239 27.96015 34101 ft 430 kts 335°
2026-05-06 19:35 36.61763 27.93137 34104 ft 430 kts 335°
2026-05-06 19:36 36.67252 27.90279 34107 ft 430 kts 335°
2026-05-06 19:36 36.72767 27.87398 34113 ft 431 kts 335°
2026-05-06 19:37 36.78270 27.84464 34114 ft 429 kts 335°
2026-05-06 19:37 36.83753 27.81506 34113 ft 429 kts 335°
2026-05-06 19:38 36.89237 27.78548 34115 ft 430 kts 335°
2026-05-06 19:38 36.94724 27.75594 33821 ft 428 kts 335°
2026-05-06 19:39 36.97455 27.74126 33572 ft 428 kts 335°
2026-05-06 19:39 37.00190 27.72660 33322 ft 428 kts 335°
2026-05-06 19:39 37.02926 27.71191 33071 ft 428 kts 335°
2026-05-06 19:39 37.05663 27.69715 32822 ft 429 kts 335°
2026-05-06 19:40 37.08405 27.68232 32571 ft 429 kts 335°
2026-05-06 19:40 37.11106 27.66770 32324 ft 429 kts 335°
2026-05-06 19:40 37.13853 27.65283 32076 ft 430 kts 335°
2026-05-06 19:40 37.16599 27.63795 31824 ft 430 kts 335°
2026-05-06 19:41 37.19345 27.62305 31573 ft 431 kts 335°
2026-05-06 19:41 37.22097 27.60811 31325 ft 431 kts 335°
2026-05-06 19:41 37.24856 27.59315 31080 ft 432 kts 335°
2026-05-06 19:41 37.27615 27.57820 30825 ft 433 kts 335°
2026-05-06 19:42 37.30388 27.56325 30572 ft 433 kts 336°
2026-05-06 19:42 37.33164 27.54857 30321 ft 434 kts 336°
2026-05-06 19:42 37.35953 27.53401 30074 ft 434 kts 336°
2026-05-06 19:42 37.38748 27.51948 29814 ft 435 kts 336°
2026-05-06 19:43 37.41550 27.50496 29573 ft 436 kts 336°
2026-05-06 19:43 37.44354 27.49039 29329 ft 436 kts 336°
2026-05-06 19:43 37.47151 27.47574 28565 ft 437 kts 336°
2026-05-06 19:43 37.49951 27.46097 27776 ft 430 kts 336°
2026-05-06 19:44 37.52681 27.44612 27091 ft 426 kts 335°
2026-05-06 19:44 37.55369 27.43081 26386 ft 422 kts 334°
2026-05-06 19:44 37.58028 27.41530 25682 ft 419 kts 334°
2026-05-06 19:44 37.60625 27.40002 25009 ft 416 kts 334°
2026-05-06 19:45 37.63244 27.38466 24318 ft 413 kts 334°
2026-05-06 19:45 37.65851 27.36980 23648 ft 409 kts 335°
2026-05-06 19:45 37.68452 27.35548 22977 ft 406 kts 336°
2026-05-06 19:45 37.71044 27.34148 22311 ft 403 kts 336°
2026-05-06 19:46 37.73618 27.32769 21652 ft 400 kts 336°
2026-05-06 19:46 37.76113 27.31236 20986 ft 398 kts 329°
2026-05-06 19:46 37.78347 27.29206 20243 ft 398 kts 319°
2026-05-06 19:46 37.80368 27.26839 19548 ft 388 kts 317°
2026-05-06 19:47 37.82301 27.24546 19042 ft 380 kts 317°
2026-05-06 19:47 37.84224 27.22268 18515 ft 377 kts 317°
2026-05-06 19:47 37.86138 27.20013 17995 ft 374 kts 317°
2026-05-06 19:47 37.88037 27.17777 17466 ft 371 kts 317°
2026-05-06 19:48 37.89917 27.15564 16936 ft 368 kts 317°
2026-05-06 19:48 37.91783 27.13370 16394 ft 364 kts 317°
2026-05-06 19:48 37.93629 27.11198 15852 ft 361 kts 317°
2026-05-06 19:48 37.95464 27.09035 15288 ft 358 kts 317°
2026-05-06 19:49 37.97274 27.06897 14729 ft 354 kts 317°
2026-05-06 19:49 37.99071 27.04771 14162 ft 352 kts 317°
2026-05-06 19:49 38.00855 27.02657 13596 ft 350 kts 317°
2026-05-06 19:49 38.02638 27.00551 13011 ft 348 kts 319°
2026-05-06 19:50 38.04593 26.98767 12425 ft 346 kts 330°
2026-05-06 19:50 38.06787 26.97515 11796 ft 346 kts 342°
2026-05-06 19:50 38.09115 26.96762 11156 ft 346 kts 347°
2026-05-06 19:50 38.11432 26.96073 10784 ft 332 kts 347°
2026-05-06 19:51 38.13585 26.95426 10644 ft 305 kts 346°
2026-05-06 19:51 38.15618 26.95047 10276 ft 290 kts
2026-05-06 19:51 38.17542 26.95642 9981 ft 286 kts 25°
2026-05-06 19:51 38.19106 26.97128 9836 ft 287 kts 48°
2026-05-06 19:52 38.20099 26.99306 9701 ft 283 kts 72°
2026-05-06 19:52 38.20559 27.01664 9575 ft 271 kts 76°
2026-05-06 19:52 38.20890 27.04006 9389 ft 270 kts 90°
2026-05-06 19:52 38.20381 27.06289 8984 ft 275 kts 123°
2026-05-06 19:53 38.18958 27.07852 8525 ft 272 kts 158°
2026-05-06 19:53 38.17141 27.08508 8078 ft 273 kts 167°
2026-05-06 19:53 38.15308 27.09053 7629 ft 267 kts 167°
2026-05-06 19:53 38.13500 27.09583 7188 ft 268 kts 167°
2026-05-06 19:54 38.11706 27.10109 6737 ft 263 kts 167°
2026-05-06 19:54 38.09945 27.10624 6298 ft 260 kts 166°
2026-05-06 19:54 38.08213 27.11134 5886 ft 250 kts 167°
2026-05-06 19:54 38.06536 27.11699 5480 ft 245 kts 157°
2026-05-06 19:55 38.05211 27.12943 5076 ft 236 kts 125°
2026-05-06 19:55 38.04597 27.14816 4557 ft 232 kts 95°
2026-05-06 19:55 38.04783 27.16834 4105 ft 228 kts 75°
2026-05-06 19:55 38.05144 27.18696 4039 ft 209 kts 76°
2026-05-06 19:56 38.05545 27.20449 3974 ft 206 kts 61°
2026-05-06 19:56 38.06533 27.21688 3886 ft 203 kts 23°
2026-05-06 19:56 38.07901 27.21915 3664 ft 198 kts 349°
2026-05-06 19:56 38.09227 27.21521 3397 ft 194 kts 346°
2026-05-06 19:57 38.10513 27.21131 3147 ft 189 kts 346°
2026-05-06 19:57 38.11774 27.20746 2922 ft 183 kts 346°
2026-05-06 19:57 38.12989 27.20377 2715 ft 176 kts 346°
2026-05-06 19:57 38.14163 27.20022 2497 ft 171 kts 346°
2026-05-06 19:58 38.15312 27.19678 2307 ft 168 kts 346°
2026-05-06 19:58 38.16438 27.19338 2199 ft 165 kts 346°
2026-05-06 19:58 38.17509 27.19014 2161 ft 151 kts 346°
2026-05-06 19:58 38.18511 27.18712 2097 ft 145 kts 346°
2026-05-06 19:59 38.19484 27.18420 2033 ft 143 kts 346°
2026-05-06 19:59 38.20447 27.18133 1896 ft 142 kts 346°
2026-05-06 19:59 38.21405 27.17848 1698 ft 140 kts 346°
2026-05-06 19:59 38.22348 27.17546 1506 ft 140 kts 346°
2026-05-06 20:00 38.23290 27.17244 1299 ft 139 kts 346°
2026-05-06 20:00 38.24229 27.16970 1098 ft 138 kts 347°
2026-05-06 20:00 38.25166 27.16696 952 ft 138 kts 347°
2026-05-06 20:00 38.26104 27.16428 746 ft 138 kts 347°
2026-05-06 20:01 38.27034 27.16148 622 ft 138 kts 346°
2026-05-06 20:01 38.27968 27.15867 418 ft 137 kts 347°
2026-05-06 20:01 38.28762 27.15623 417 ft 94 kts 346°
2026-05-06 20:01 38.29232 27.15481 417 ft 45 kts 347°
2026-05-06 20:02 38.29385 27.15396 419 ft 16 kts 270°
2026-05-06 20:02 38.29365 27.15277 412 ft 10 kts 254°
2026-05-06 20:02 38.29361 27.15260 411 ft 0 kts 254°
2026-05-06 20:03 38.29360 27.15256 411 ft 2 kts 254°
2026-05-06 20:03 38.29352 27.15221 411 ft 6 kts 256°
2026-05-06 20:03 38.29343 27.15163 411 ft 8 kts 264°
2026-05-06 20:03 38.29385 27.15118 411 ft 10 kts 343°
2026-05-06 20:04 38.29452 27.15097 411 ft 11 kts 347°
2026-05-06 20:04 38.29502 27.15076 411 ft 5 kts 317°
2026-05-06 20:04 38.29503 27.15046 411 ft 4 kts 261°
2026-05-06 20:04 38.29497 27.15014 411 ft 4 kts 257°
2026-05-06 20:05 38.29495 27.15002 411 ft 0 kts 257°